Regional Weather Roundup
Issued by NWS

Home | Current Version | Previous Version | Graphics & Text | Print | Product List | Glossary On
Versions: 1 2 3 4 5 6 7 8 9 10 11 12 13 14 15 16 17 18 19 20 21 22 23 24 25 26 27 28 29 30 31 32 33 34 35 36 37 38 39 40 41 42 43 44 45 46 47 48 49 50
000
ASUS43 KBIS 272002
RWRND

NORTH DAKOTA REGIONAL WEATHER ROUNDUP
NATIONAL WEATHER SERVICE BISMARCK ND
300 PM CDT WED APR 27 2016

NOTE: "FAIR" INDICATES FEW OR NO CLOUDS BELOW 12,000 FEET WITH NO
SIGNIFICANT WEATHER AND/OR OBSTRUCTIONS TO VISIBILITY.


NDZ001>003-009>011-017-272100-
NORTHWEST NORTH DAKOTA

CITY           SKY/WX    TMP DP  RH WIND       PRES   REMARKS
WILLISTON      CLOUDY    49  21  33 E21       30.02R
MINOT          CLOUDY    59  21  23 E20G26    30.00F
MINOT AFB      CLOUDY    55  23  29 E20G28    29.99F
$$

NDZ018>021-031>035-040>046-272100-
SOUTHWEST NORTH DAKOTA

CITY           SKY/WX    TMP DP  RH WIND       PRES   REMARKS
BISMARCK       CLOUDY    48  34  58 NE17G26   29.92F
DICKINSON      LGT RAIN  35  33  92 NE9       29.92S
GARRISON         N/A     50  22  33 E23G30    29.96F
HETTINGER ARPT LGT SNOW  35  32  88 NE18      29.90S FOG
$$

NDZ004>008-012>016-024-026-027-054-272100-
NORTHEAST NORTH DAKOTA

CITY           SKY/WX    TMP DP  RH WIND       PRES   REMARKS
GRAND FORKS    CLOUDY    57  25  29 E17G25    30.00F
GRND FRKS AFB  CLOUDY    56  23  27 E15G25    30.00F
DEVILS LAKE    MOSUNNY   53  23  31 E23G32    30.01S
$$

NDZ022-023-025-028>030-036>039-047>053-272100-
SOUTHEAST NORTH DAKOTA

CITY           SKY/WX    TMP DP  RH WIND       PRES   REMARKS
FARGO          CLOUDY    57  21  24 NE17G29   29.89F
JAMESTOWN      CLOUDY    52  30  43 NE24G31   29.90F
$$





USA.gov is the U.S. government's official web portal to all federal, state and local government web resources and services.